Weather Roundup
Issued by NWS Chicago, IL

Home | Current Version | Previous Version | Graphics & Text | Print | Product List | Glossary On
Versions: 1 2 3 4 5 6 7 8 9 10 11 12 13 14 15 16 17 18 19 20 21 22 23 24 25 26 27 28 29 30 31 32 33 34 35 36 37 38 39 40 41 42 43 44 45 46 47 48 49 50
000
NZUS59 KLOT 281808
HRRLOT

CHICAGO AREA WEATHER ROUNDUP
NATIONAL WEATHER SERVICE CHICAGO/ROMEOVILLE IL
100 PM CDT THU MAY 28 2015

NOTE: "FAIR" INDICATES FEW OR NO CLOUDS BELOW 12,000 FEET WITH NO
SIGNIFICANT WEATHER AND/OR OBSTRUCTIONS TO VISIBILITY.

* THESE STATIONS ARE NOT UNDER NWS QUALITY CONTROL. THEY ALSO MAY NOT
  REPORT WEATHER SUCH AS PRECIPITATION OR FOG.

ILZ005-006-012>014-019>023-281900-
NORTHEAST ILLINOIS

CITY           SKY/WX    TMP DP  RH WIND       PRES   REMARKS
OHARE          PTSUNNY   81  56  42 SE10G18   30.17F HX  81
6HR MIN TEMP:  61; 6HR MAX TEMP:  81;

MIDWAY         PTSUNNY   81  58  45 SE12      30.17F HX  81
6HR MIN TEMP:  63; 6HR MAX TEMP:  82;

AURORA         MOSUNNY   80  57  45 SE13G20   30.18F HX  80
6HR MIN TEMP:  59; 6HR MAX TEMP:  81;

LANSING*       SUNNY     79  53  39 SE8       30.19F
JOLIET*        MOSUNNY   81  59  46 SE9       30.17F HX  82
WAUKEGAN       MOSUNNY   72  57  59 SE12      30.19S
6HR MIN TEMP:  60; 6HR MAX TEMP:  77;

DUPAGE AIRPORT MOSUNNY   80  58  46 S12       30.17F HX  80
6HR MIN TEMP:  60; 6HR MAX TEMP:  80;

WHEELING       MOSUNNY   79  55  43 E12G21    30.19F
6HR MIN TEMP:  60; 6HR MAX TEMP:  80;

KANKAKEE*      SUNNY     81  58  45 E12       30.18F HX  81
MORRIS*        SUNNY     81  56  42 SE10G18   30.16F HX  81
LEWIS AIRPORT* SUNNY     80  56  42 SE12G18   30.17F HX  80
NORTHERLY IS     N/A     66  55  67 E6          N/A
$$

WIZ051-052-058>065-066-070>072-281900-
SOUTHEAST WISCONSIN

CITY           SKY/WX    TMP DP  RH WIND       PRES   REMARKS
MILWAUKEE      PTSUNNY   77  58  51 SE15      30.17F
6HR MIN TEMP:  64; 6HR MAX TEMP:  80;

KENOSHA*       MOSUNNY   78  59  51 SE13      30.19S
RACINE*        MOSUNNY   73  57  57 SE10      30.20F
BURLINGTON     MOSUNNY   78  54  42 S8        30.17S
WAUKESHA       MOSUNNY   79  57  47 S6        30.18F HX  80
WEST BEND      PTSUNNY   79  55  44 S9        30.16F
$$

INZ001>003-010>013-019-020-281900-
NORTHWEST INDIANA

CITY           SKY/WX    TMP DP  RH WIND       PRES   REMARKS
GARY*          MOSUNNY   79  59  50 E9        30.20F HX  80
MICHIGAN CITY* NOT AVBL
RENSSELAER*    NOT AVBL
VALPARAISO     SUNNY     80  52  37 E13       30.20F HX  80
$$

LMZ740>746-281900-
SOUTHERN LAKE MICHIGAN

STATION/POSITION TIME  SKY/WX   TEMP WIND        PRES    VSBY
                                AIR  DIR/SP/G
                 (UTC)          (F)  (DEG/KT/KT) (MB)    (MI)
HARRISON CRIB    1700            67  110/ 12/ 13   N/A
BURNHAM HARBOR   1800            67   70/  4/  6   N/A
CALUMET HARBOR   1748            66   50/  7/  8   N/A
BURNS HARBOR     1700            64   50/ 10/ 13 1023.0F
MICHIGAN CITY    1700            69   20/  7/ 10   N/A
$$

ABBREVIATIONS USED IN REMARKS
   TC - TEMPERATURE IN CELSIUS
  WCI - WIND CHILL INDEX
   HX - HEAT INDEX
  VSB - VISIBILITY
$$


USA.gov is the U.S. government's official web portal to all federal, state and local government web resources and services.